| time (UTC) | temp C | wind direction | speed KPH | gust KPH | rain 1hr cm | rain 24hr cm | rain mn cm | humidity % | barometer mb |
| 20260504034518 | 15 | 219 | 3.2 | 6.4 | 0.00 | 0.00 | 0.00 | 59 | 1004.4 |
| 20260504033014 | 16 | 193 | 3.2 | 9.7 | 0.00 | 0.00 | 0.00 | 57 | 1004.6 |
| 20260504031513 | 16 | 221 | 4.8 | 17.7 | 0.00 | 0.00 | 0.00 | 56 | 1004.7 |
| 20260504030012 | 16 | 217 | 1.6 | 11.3 | 0.00 | 0.00 | 0.00 | 55 | 1004.8 |
| 20260504024512 | 16 | 233 | 6.4 | 14.5 | 0.00 | 0.00 | 0.00 | 54 | 1004.7 |
| 20260504023010 | 17 | 221 | 4.8 | 12.9 | 0.00 | 0.00 | 0.00 | 53 | 1004.6 |
| 20260504021512 | 17 | 236 | 6.4 | 14.5 | 0.00 | 0.00 | 0.00 | 52 | 1004.6 |
| 20260504020015 | 17 | 249 | 4.8 | 14.5 | 0.00 | 0.00 | 0.00 | 52 | 1004.5 |
| 20260504014517 | 17 | 221 | 3.2 | 19.3 | 0.00 | 0.00 | 0.00 | 51 | 1004.2 |
| 20260504013009 | 17 | 236 | 4.8 | 16.1 | 0.00 | 0.00 | 0.00 | 50 | 1004.1 |
| 20260504011508 | 18 | 246 | 6.4 | 17.7 | 0.00 | 0.00 | 0.00 | 49 | 1003.9 |
| 20260504010007 | 18 | 225 | 6.4 | 19.3 | 0.00 | 0.00 | 0.00 | 48 | 1003.9 |
| 20260504004516 | 18 | 238 | 6.4 | 16.1 | 0.00 | 0.00 | 0.00 | 46 | 1004.0 |
| 20260504003005 | 19 | 233 | 8.0 | 17.7 | 0.00 | 0.00 | 0.00 | 45 | 1003.9 |
| 20260504001505 | 20 | 257 | 6.4 | 14.5 | 0.00 | 0.00 | 0.00 | 44 | 1003.9 |
| 20260504000004 | 20 | 268 | 4.8 | 17.7 | 0.00 | 0.00 | 0.00 | 43 | 1003.9 |
| 20260503234504 | 20 | 212 | 8.0 | 20.9 | 0.00 | 0.00 | 0.00 | 42 | 1003.9 |
| 20260503233007 | 20 | 203 | 12.9 | 27.4 | 0.00 | 0.00 | 0.00 | 42 | 1003.9 |
| 20260503231601 | 20 | 261 | 8.0 | 30.6 | 0.00 | 0.00 | 0.00 | 42 | 1004.1 |
| 20260503224556 | 19 | 234 | 14.5 | 30.6 | 0.00 | 0.00 | 0.00 | 42 | 1004.3 |
| 20260503223054 | 19 | 228 | 12.9 | 29.0 | 0.00 | 0.00 | 0.00 | 42 | 1004.5 |
| 20260503221558 | 19 | 217 | 9.7 | 25.7 | 0.00 | 0.00 | 0.00 | 42 | 1004.7 |
| 20260503220050 | 18 | 248 | 11.3 | 25.7 | 0.00 | 0.00 | 0.00 | 43 | 1004.9 |
| 20260503214550 | 18 | 251 | 16.1 | 32.2 | 0.00 | 0.00 | 0.00 | 41 | 1005.0 |
| 20260503213048 | 19 | 230 | 9.7 | 29.0 | 0.00 | 0.00 | 0.00 | 41 | 1005.1 |
| 20260503211544 | 18 | 243 | 14.5 | 40.2 | 0.00 | 0.00 | 0.00 | 41 | 1005.5 |
| 20260503210042 | 17 | 216 | 22.5 | 45.1 | 0.00 | 0.00 | 0.00 | 40 | 1005.8 |
| 20260503204543 | 17 | 221 | 9.7 | 46.7 | 0.00 | 0.00 | 0.00 | 41 | 1006.1 |
| 20260503203052 | 17 | 174 | 16.1 | 43.5 | 0.00 | 0.00 | 0.00 | 42 | 1006.4 |
| 20260503201536 | 17 | 188 | 22.5 | 40.2 | 0.00 | 0.00 | 0.00 | 42 | 1006.5 |
| 20260503200033 | 17 | 241 | 9.7 | 38.6 | 0.00 | 0.00 | 0.00 | 45 | 1006.8 |
| 20260503194529 | 16 | 240 | 17.7 | 38.6 | 0.00 | 0.00 | 0.00 | 49 | 1007.0 |
| 20260503193026 | 16 | 221 | 22.5 | 35.4 | 0.00 | 0.00 | 0.00 | 51 | 1007.3 |
| 20260503191529 | 15 | 225 | 16.1 | 29.0 | 0.00 | 0.00 | 0.00 | 51 | 1007.4 |
| 20260503190023 | 14 | 193 | 20.9 | 33.8 | 0.00 | 0.00 | 0.00 | 51 | 1007.8 |
| 20260503184517 | 13 | 165 | 19.3 | 32.2 | 0.00 | 0.00 | 0.00 | 55 | 1008.0 |
| 20260503183017 | 13 | 206 | 16.1 | 29.0 | 0.00 | 0.00 | 0.00 | 57 | 1008.4 |
| 20260503181510 | 12 | 176 | 14.5 | 32.2 | 0.00 | 0.00 | 0.00 | 59 | 1008.8 |
| 20260503180010 | 12 | 181 | 14.5 | 27.4 | 0.00 | 0.00 | 0.00 | 59 | 1009.4 |
| 20260503174505 | 12 | 181 | 17.7 | 33.8 | 0.00 | 0.00 | 0.00 | 61 | 1010.1 |
| 20260503173003 | 12 | 178 | 14.5 | 35.4 | 0.00 | 0.00 | 0.00 | 62 | 1010.5 |
| 20260503171601 | 12 | 249 | 19.3 | 38.6 | 0.00 | 0.00 | 0.00 | 62 | 1010.8 |
| 20260503090104 | 8 | 214 | 4.8 | 14.5 | 0.00 | 0.00 | 0.00 | 52 | 1012.8 |
| 20260503081553 | 8 | 205 | 3.2 | 14.5 | 0.00 | 0.00 | 0.00 | 50 | 1013.0 |
| 20260503071605 | 8 | 208 | 1.6 | 8.0 | 0.00 | 0.00 | 0.00 | 51 | 1013.2 |
| 20260503054549 | 8 | 205 | 3.2 | 9.7 | 0.00 | 0.00 | 0.00 | 49 | 1013.9 |
| 20260503053034 | 8 | 212 | 1.6 | 8.0 | 0.00 | 0.00 | 0.00 | 50 | 1014.0 |
| 20260503051534 | 8 | 214 | 1.6 | 6.4 | 0.00 | 0.00 | 0.00 | 49 | 1014.2 |
| 20260503050036 | 8 | 226 | 1.6 | 6.4 | 0.00 | 0.00 | 0.00 | 49 | 1014.3 |
| 20260503044530 | 8 | 229 | 3.2 | 8.0 | 0.00 | 0.00 | 0.00 | 49 | 1014.3 |
| 20260503043030 | 8 | 233 | 3.2 | 8.0 | 0.00 | 0.00 | 0.00 | 50 | 1014.3 |
| 20260503041535 | 8 | 247 | 1.6 | 6.4 | 0.00 | 0.00 | 0.00 | 50 | 1014.4 |
| 20260503040025 | 8 | 212 | 1.6 | 4.8 | 0.00 | 0.00 | 0.00 | 49 | 1014.5 |